Home   Weather   Iasi   Past weeks

Flag for Romania Past Weather in Iasi, Romania — Yesterday and Last 2 Weeks

Now
46 °F

Passing clouds.


Feels Like: 45 °F
Forecast: 41 / 55 °F
Wind: 3 mph from Northwest

Location: Iasi Airport

Current Time: Feb 22, 2017 at 3:10:52 pm

Latest Report: Feb 22, 2017 at 2:30 pm


Visibility: N/A

Pressure: 29.83 "Hg

Humidity: 46%

Dew Point: 27 °F

Location of IasiLocation

Past Weather in Iasi — Graph

°F

Iasi Temperature Yesterday

Maximum temperature yesterday: 43 °F (at 5:30 pm)
Minimum temperature yesterday: 25 °F (at 8:00 am)
Average temperature yesterday: 34 °F

High & Low Weather Summary for the Past Weeks

 TemperatureHumidityPressure
High46 °F (Feb 22, 2:00 pm)93% (Feb 8, 7:30 pm)30.74 "Hg (Feb 8, 7:30 pm)
Low-4 °F (Feb 10, 7:30 am)45% (Feb 9, 4:00 pm)29.68 "Hg (Feb 21, 8:00 pm)
Average25 °F76%30.37 "Hg
* Reported Feb 7 2:00 pm — Feb 22 2:00 pm, Iasi, Weather by CustomWeather, © 2017

Note: Actual official high and low records may vary slightly from our data, if they occured in-between our weather recording intervals... More about our weather records

Advertising

Iasi Weather History for the Previous 24 Hours

Scroll right to see more
 ConditionsComfort  
Time TempWeatherWind HumidityBarometerVisibility
2:00 pm
Wed, Feb 22
46 °FPassing clouds.3 mph50%29.83 "HgN/A
1:30 pm45 °FSunny.8 mph53%29.86 "Hg10 mi
1:00 pm45 °FSunny.9 mph53%29.86 "Hg10 mi
12:30 pm43 °FSunny.9 mph57%29.86 "Hg10 mi
12:00 pm43 °FSunny.13 mph57%29.86 "Hg10 mi
11:30 am43 °FSunny.13 mph53%29.89 "Hg10 mi
11:00 am43 °FSunny.14 mph57%29.86 "Hg10 mi
10:30 am43 °FSunny.13 mph57%29.86 "Hg10 mi
10:00 am43 °FPassing clouds.10 mph53%29.86 "HgN/A
9:30 am41 °FPassing clouds.9 mph57%29.86 "HgN/A
8:30 am39 °FSunny.7 mph61%29.83 "Hg10 mi
8:00 am39 °FSunny.8 mph61%29.83 "Hg10 mi
7:30 am37 °FSunny.6 mph70%29.83 "Hg10 mi
7:00 am37 °FClear.7 mph70%29.80 "Hg10 mi
6:30 am39 °FClear.14 mph65%29.80 "Hg10 mi
6:00 am39 °FClear.10 mph70%29.80 "Hg10 mi
5:30 am39 °FClear.9 mph70%29.80 "Hg10 mi
5:00 am37 °FPassing clouds.6 mph81%29.80 "HgN/A
4:30 am39 °FPassing clouds.7 mph75%29.80 "HgN/A
4:00 am39 °FPassing clouds.5 mph75%29.77 "HgN/A
3:30 am37 °FLight rain. Passing clouds.3 mph81%29.77 "HgN/A
3:00 am37 °FLight rain. Overcast.7 mph75%29.77 "HgN/A
2:30 am39 °FLight rain. Passing clouds.6 mph70%29.77 "HgN/A
1:30 am43 °FLight rain. Clear.6 mph61%29.74 "HgN/A
1:00 am41 °FLight rain. Clear.3 mph66%29.71 "HgN/A
12:30 am41 °FClear.2 mph66%29.71 "Hg10 mi
12:00 am43 °FClear.5 mph61%29.71 "Hg10 mi
11:30 pm
Tue, Feb 21
41 °FLight rain. Passing clouds.5 mph66%29.71 "HgN/A
11:00 pm43 °FLight rain. Passing clouds.5 mph57%29.71 "HgN/A
10:30 pm41 °FClear.3 mph66%29.71 "Hg10 mi
10:00 pm41 °FClear.2 mph66%29.71 "Hg10 mi
9:30 pm43 °FClear.3 mph61%29.71 "Hg10 mi
9:00 pm43 °FPassing clouds.3 mph61%29.71 "HgN/A
8:30 pm43 °FPassing clouds.5 mph61%29.68 "HgN/A
8:00 pm43 °FPassing clouds.7 mph61%29.68 "HgN/A
7:30 pm43 °FPassing clouds.7 mph61%29.71 "HgN/A
7:00 pm41 °FLight rain. Passing clouds.7 mph70%29.71 "HgN/A
6:30 pm41 °FLight rain. Passing clouds.3 mph70%29.71 "HgN/A
6:00 pm43 °FPassing clouds.5 mph66%29.71 "HgN/A
5:30 pm43 °FPartly sunny.6 mph66%29.71 "HgN/A
5:00 pm41 °FPartly sunny.3 mph76%29.71 "HgN/A
4:30 pm39 °FScattered clouds.2 mph81%29.71 "HgN/A
4:00 pm39 °FScattered clouds.2 mph75%29.71 "HgN/A
3:30 pm39 °FLight rain. Partly sunny.5 mph81%29.71 "HgN/A
3:00 pm37 °FLight rain. Clear.3 mph75%29.71 "HgN/A
Weather by CustomWeather, © 2017

See weather overviewHow to use our weather pages